Home   Weather   Ashdod   Past weeks

Flag for Israel Past Weather in Ashdod, Israel — Yesterday and Last 2 Weeks

Now
55 °F

Passing clouds.


Feels Like: 55 °F
Forecast: 51 / 62 °F
Wind: 3 mph from North

Location: Ben Gurion International Airport

Current Time: Jan 20, 2017 at 10:13:52 pm

Latest Report: Jan 20, 2017 at 9:20 pm


Visibility: N/A

Pressure: 30.15 "Hg

Humidity: 77%

Dew Point: 48 °F

Location of AshdodLocation

Past Weather in Ashdod — Graph

°F

Ashdod Temperature Yesterday

Maximum temperature yesterday: 64 °F (at 10:20 am)
Minimum temperature yesterday: 50 °F (at 11:50 pm)
Average temperature yesterday: 58 °F

High & Low Weather Summary for the Past Weeks

 TemperatureHumidityPressure
High72 °F (Jan 6, 1:20 pm)100% (Jan 14, 11:20 pm)30.27 "Hg (Jan 14, 11:20 pm)
Low41 °F (Jan 11, 5:50 am)23% (Jan 6, 1:50 pm)29.86 "Hg (Jan 14, 11:20 pm)
Average55 °F66%30.07 "Hg
* Reported Jan 5 8:20 pm — Jan 20 8:50 pm, Ashdod, Weather by CustomWeather, © 2017

Note: Actual official high and low records may vary slightly from our data, if they occured in-between our weather recording intervals... More about our weather records

Advertising

Ashdod Weather History for the Previous 24 Hours

Scroll right to see more
 ConditionsComfort  
Time TempWeatherWind HumidityBarometerVisibility
8:50 pm
Fri, Jan 20
55 °FPassing clouds.2 mph77%30.15 "HgN/A
8:20 pm54 °FClear.2 mph82%30.15 "Hg10 mi
7:50 pm55 °FClear.5 mph77%30.15 "Hg10 mi
7:20 pm57 °FClear.5 mph72%30.15 "Hg10 mi
6:50 pm59 °FClear.3 mph68%30.12 "Hg10 mi
6:20 pm59 °FClear.5 mph68%30.12 "Hg10 mi
5:50 pm59 °FClear.6 mph68%30.12 "Hg10 mi
5:20 pm61 °FClear.8 mph63%30.12 "Hg10 mi
4:50 pm61 °FSunny.8 mph63%30.12 "Hg10 mi
4:20 pm63 °FPassing clouds.8 mph56%30.12 "HgN/A
3:50 pm63 °FSunny.8 mph56%30.12 "Hg10 mi
3:20 pm64 °FPassing clouds.10 mph52%30.12 "HgN/A
2:50 pm64 °FSunny.9 mph52%30.12 "Hg10 mi
2:20 pm64 °FSunny.10 mph52%30.12 "Hg10 mi
1:50 pm64 °FPassing clouds.9 mph49%30.12 "HgN/A
1:20 pm64 °FPassing clouds.8 mph49%30.12 "HgN/A
12:50 pm64 °FPassing clouds.12 mph49%30.15 "HgN/A
12:20 pm64 °FPassing clouds.9 mph49%30.15 "HgN/A
11:50 am64 °FPassing clouds.8 mph49%30.18 "HgN/A
11:20 am64 °FSunny.7 mph46%30.18 "Hg10 mi
10:50 am63 °FSunny.7 mph59%30.21 "Hg10 mi
10:20 am63 °FSunny.2 mph59%30.21 "Hg10 mi
9:50 am63 °FSunny.1 mph59%30.21 "Hg10 mi
9:20 am61 °FSunny.1 mph59%30.21 "Hg10 mi
8:50 am57 °FSunny.1 mph67%30.21 "Hg10 mi
8:20 am54 °FSunny.2 mph77%30.21 "Hg10 mi
7:50 am50 °FSunny.2 mph88%30.21 "Hg10 mi
7:20 am48 °FHaze.2 mph87%30.21 "Hg6 mi
6:50 am48 °FPassing clouds.2 mph87%30.21 "Hg6 mi
6:20 am46 °FPassing clouds.3 mph93%30.18 "Hg6 mi
5:50 am46 °FPassing clouds.5 mph87%30.18 "Hg4 mi
5:20 am48 °FPassing clouds.1 mph87%30.21 "Hg4 mi
4:50 am48 °FPassing clouds.5 mph87%30.18 "Hg4 mi
4:20 am48 °FPassing clouds.2 mph87%30.18 "Hg4 mi
3:50 am48 °FPassing clouds.1 mph87%30.21 "Hg4 mi
3:20 am48 °FPassing clouds.1 mph87%30.21 "Hg4 mi
2:50 am48 °FPassing clouds.2 mph87%30.18 "Hg4 mi
2:20 am48 °FPassing clouds.3 mph87%30.21 "Hg4 mi
1:50 am50 °FPassing clouds.5 mph82%30.21 "HgN/A
1:20 am48 °FPassing clouds.5 mph87%30.21 "HgN/A
12:50 am48 °FPassing clouds.2 mph87%30.21 "HgN/A
12:20 am50 °FClear.3 mph88%30.21 "Hg10 mi
11:50 pm
Thu, Jan 19
50 °FClear.3 mph88%30.21 "Hg10 mi
11:20 pm52 °FClear.2 mph82%30.21 "Hg10 mi
10:50 pm54 °FClear.3 mph77%30.21 "Hg10 mi
10:20 pm54 °FClear.5 mph77%30.21 "Hg10 mi
Weather by CustomWeather, © 2017

See weather overviewHow to use our weather pages